Regional Weather Roundup
Issued by NWS

Home | Current Version | Previous Version | Graphics & Text | Print | Product List | Glossary On
Versions: 1 2 3 4 5 6 7 8 9 10 11 12 13 14 15 16 17 18 19 20 21 22 23 24 25 26 27
000
ASUS45 KPSR 300410
RWRAZ

ARIZONA HOURLY REGIONAL WEATHER ROUNDUP
NATIONAL WEATHER SERVICE PHOENIX AZ
900 PM MST MON AUG 29 2016

NOTE: FAIR INDICATES FEW OR NO CLOUDS BELOW 12,000 FEET WITH NO
SIGNIFICANT WEATHER AND/OR OBSTRUCTIONS TO VISIBILITY.

AZZ001>003-036-300500-
NORTHWEST ARIZONA

CITY           SKY/WX    TMP DP  RH WIND       PRES   REMARKS
BULLHEAD CITY  CLEAR    100  39  12 NE7       29.78R
KINGMAN        PTCLDY    79  47  32 CALM      30.04R
$$

AZZ004>008-015-016-018-300500-
NORTH CENTRAL ARIZONA

CITY           SKY/WX    TMP DP  RH WIND       PRES   REMARKS
GRAND CANYON   CLEAR     57  46  66 E3        30.32R
PRESCOTT       CLEAR     70  50  49 CALM      30.18R
FLAGSTAFF      CLEAR     55  45  68 CALM      30.33R
PAYSON         CLEAR     73  39  29 NE7       30.20R
PAGE           CLEAR     78  39  24 W3        30.12R
$$

AZZ009>014-017-300500-
NORTHEAST ARIZONA

CITY           SKY/WX    TMP DP  RH WIND       PRES   REMARKS
WINSLOW        CLEAR     67  48  50 SW5       30.17R
SAINT JOHNS    MOCLDY    68  47  46 CALM      30.22R
WINDOW ROCK    PTCLDY    68  39  34 NE7       30.33R
SHOW LOW       CLEAR     59  41  51 CALM      30.29R
$$

AZZ023-300500-
GREATER PHOENIX AREA

CITY           SKY/WX    TMP DP  RH WIND       PRES   REMARKS
PHOENIX        CLEAR     97  42  15 CALM      29.80R
BUCKEYE        CLEAR     91  46  21 NE5       29.82R
LUKE AFB       CLEAR     97  45  16 S5        29.80R
DEER VALLEY    CLEAR     94  44  17 E5        29.84R
SCOTTSDALE     CLEAR     95  43  16 N6        29.86R
MESA-GATEWAY   CLEAR     91  43  18 SE3       29.84R
CHANDLER       PTCLDY    93  43  17 S8        29.82R
$$

AZZ027-028-300500-
SOUTHWEST MARICOPA COUNTY AND PINAL COUNTY

CITY           SKY/WX    TMP DP  RH WIND       PRES   REMARKS
CASA GRANDE    CLEAR     90  36  14 CALM      29.86S
GILA BEND      CLEAR     95  40  14 E6        29.79R
$$

AZZ503-504-507>509-300500-
SOUTHEAST ARIZONA

CITY           SKY/WX    TMP DP  RH WIND       PRES   REMARKS
TUCSON         CLEAR     90  40  17 N9        29.95R
DAVIS-MONTHAN  CLEAR     85  42  22 NW8       29.94R
NOGALES        MOCLDY    75  46  35 SE5       30.04R
SIERRA VISTA   PTCLDY    76  47  36 S10       30.12R
DOUGLAS        PTCLDY    76  50  40 E7        30.08R
SAFFORD        PTCLDY    86  43  22 E9        29.99R
$$

AZZ020-021-025-026-031-300500-
SOUTHWEST ARIZONA

CITY           SKY/WX    TMP DP  RH WIND       PRES   REMARKS
YUMA           PTCLDY    99  48  17 W8        29.74R
$$

CAZ031-033-041-043-047-048-061-300500-
SOUTHERN CALIFORNIA

CITY           SKY/WX    TMP DP  RH WIND       PRES   REMARKS
DOWNTOWN L.A.  CLEAR     70  60  70 CALM      29.86R
L.A. AIRPORT   CLEAR     70  63  78 S3        29.86R
SAN DIEGO      PTCLDY    71  66  84 W6        29.90R
BURBANK        CLEAR     77  58  51 E8        29.87R
ONTARIO        CLEAR     80  59  48 W7        29.89R
RIVERSIDE      CLEAR     83  60  45 CALM      29.88R
PALM SPRINGS   CLEAR    103  43  13 NW8       29.79R
EL CENTRO NAS  CLEAR     96  45  17 W7        29.75R
IMPERIAL       CLEAR     96  52  22 W5        29.72R
BLYTHE         CLEAR    100  45  15 SW6       29.76R
NEEDLES        PTCLDY   102  42  13 NW8       29.79R
$$

NVZ020-UTZ003-300500-
SOUTHERN NEVADA-UTAH

CITY           SKY/WX    TMP DP  RH WIND       PRES   REMARKS
LAS VEGAS      CLEAR     96  33  11 W3        29.90R
SALT LAKE CITY PTCLDY    80  39  23 SE5       30.13R
$$

NMZ009-TXZ055-300500-
NEW MEXICO-WEST TEXAS

CITY           SKY/WX    TMP DP  RH WIND       PRES   REMARKS
ALBUQUERQUE    PTCLDY    66  49  54 E22G31    30.29R
EL PASO        MOCLDY    76  57  51 NE12      30.15R
$$


........................KEY........................
SKY/WX - SKY CONDITION/WEATHER
TMP    - TEMPERATURE IN FAHRENHEIT
DP     - DEW POINT IN FAHRENHEIT
RH     - RELATIVE HUMIDITY IN PERCENT
WIND   - DIRECTION AND SPEED IN MILES PER HOUR (MPH)
VRB    - VARIABLE WIND DIRECTION
PRES   - MEAN SEA LEVEL PRESSURE IN INCHES OF MERCURY
         F - FALLING PRESSURE   R - RISING PRESSURE
         S - STEADY PRESSURE
VSB    - VISIBILITY IN MILES
HX     - HEAT INDEX IN FAHRENHEIT
WCI    - WIND CHILL INDEX IN FAHRENHEIT
TC     - TEMPERATURE IN CELSIUS WHICH IS ALSO KNOWN AS
         TEMPERATURE IN CENTIGRADE
AFB    - AIR FORCE BASE
         LUKE AFB IS LUKE AIR FORCE BASE
         DAVIS-MONTHAN IS DAVIS-MONTHAN AIR FORCE BASE
NAS    - NAVAL AIR STATION
         EL CENTRO NAS IS EL CENTRO NAVAL AIR STATION
N/A    - NOT AVAILABLE





USA.gov is the U.S. government's official web portal to all federal, state and local government web resources and services.